Voltar ao catálogo

STARLINK-35281

AtivoComunicaçõesVLEO
NORAD 65824·PAYLOAD·🇺🇸 United States

Lançado Sep 29, 2025 de Vandenberg Space Force Base

Loading…

Próximas Passagens (próximas 24 horas)

TLE

AtualizadoSource: CelesTrak SupGP

Época: Sep 14, 2026, 14:37 UTC

1 65824C 25221B   26257.60951389  .00022540  00000+0  66613-3 0  2574
2 65824  53.1575 288.9836 0001259  75.6550 298.8004 15.34371241    15

Acompanhe STARLINK-35281 em tempo real com AllMySat

Download on the App Store